Terminal Aerodrome Forecast
Issued by NWS Dodge City, KS

Home | Current Version | Previous Version | Graphics & Text | Print | Product List | Glossary Off
Versions: 1 2 3 4 5 6 7 8 9 10 11 12 13 14 15 16 17 18 19 20 21 22 23 24 25

000
FTUS43 KDDC 302320
TAFDDC
TAF
KDDC 302320Z 0100/0124 20012KT P6SM SKC
     FM011400 25012KT P6SM SCT250
     FM011800 VRB05KT P6SM SCT250=

USA.gov is the U.S. government's official web portal to all federal, state and local government web resources and services.